[[{"header":{"parameterUnit":"m.s-1","parameterCategory":1,"la1":30.2991,"la2":30.254,"lo1":-89.0895,"lo2":-89.0444,"dy":0.0017,"dx":0.0017,"nx":28,"ny":28,"refTime":"2023-09-17T21:00:00:Z","depth":0,"parameterNumber":2,"parameterNumberName":"U-component_of_WINDS"},"data":[0,0,0,0,0,0,0,0,0,0,0,0,0,0,0,0,0,0,0,0,0,0,0,0,0,0,0,0,0,0,0,0,0,0,0,0,0,0,0,0,0,0,0,0,0,0,0,0,0,0,0,0,0,0,0,0,0,0,-1.5068,-1.5069,0,-1.5168,-1.5169,-1.517,-1.5092,-1.5088,-1.5085,-1.5082,-1.5186,-1.5192,-1.5198,0,0,0,0,0,0,0,0,0,0,0,0,0,-1.4813,-1.4818,-1.5068,-1.5069,-1.5071,-1.5167,-1.5169,-1.517,-1.5092,-1.5088,-1.5084,-1.508,-1.5184,-1.5191,-1.5198,0,0,0,0,0,0,0,0,0,0,0,0,0,-1.4919,-1.482,-1.5068,-1.5043,-1.5042,-1.5167,-1.5169,-1.517,-1.5093,-1.5088,-1.5083,-1.5079,-1.5182,-1.5191,-1.5199,-1.5354,0,0,-1.5226,-1.523,0,0,0,0,0,0,0,0,-1.4913,-1.4929,-1.5046,-1.5045,-1.5044,-1.5112,-1.5117,-1.5232,-1.5095,-1.5074,-1.5082,-1.5076,-1.5166,-1.5176,-1.5205,-1.5359,-1.5364,-1.5227,-1.5233,-1.5236,-1.5239,0,0,0,0,0,0,0,-1.4906,-1.4924,-1.5107,-1.5048,-1.5047,-1.5028,-1.5038,-1.5138,-1.5147,-1.5075,-1.507,-1.5083,-1.5164,-1.5197,-1.5207,-1.5365,-1.5227,-1.5235,-1.524,-1.5244,-1.5652,-1.5658,0,0,0,0,0,0,-1.4901,-1.4918,-1.5104,-1.511,-1.4965,-1.5037,-1.5047,-1.5095,-1.5146,-1.5148,-1.5087,-1.5079,-1.5184,-1.5197,-1.5211,-1.5397,-1.5236,-1.5245,-1.525,-1.5647,-1.5654,-1.566,0,0,0,0,0,0,-1.4896,-1.4918,-1.51,-1.5013,-1.5035,-1.5046,-1.5101,-1.51,-1.5133,-1.5154,-1.5156,-1.5119,-1.5181,-1.5198,-1.5319,-1.54,-1.5249,-1.5257,-1.564,-1.5649,-1.5657,-1.5771,0,0,0,0,0,0,-1.4889,-1.4917,-1.4976,-1.5015,-1.504,-1.5207,-1.5106,-1.5106,-1.5148,-1.5138,-1.5184,-1.5187,-1.5178,-1.5307,-1.5328,-1.5409,-1.5264,-1.5633,-1.5644,-1.5654,-1.576,-1.5782,-1.5801,0,0,0,0,0,-1.488,-1.5004,-1.4979,-1.5002,-1.5113,-1.5212,-1.5226,-1.5213,-1.5154,-1.5214,-1.5228,-1.5186,-1.5386,-1.532,-1.5343,-1.5428,-1.5628,-1.5641,-1.5653,-1.5751,-1.5777,-1.58,0,0,0,0,0,0,-1.4975,-1.5009,-1.4981,-1.5122,-1.5165,-1.5199,-1.5274,-1.5242,-1.5303,-1.5291,-1.5272,-1.5283,-1.5411,-1.5431,-1.5356,-1.5581,-1.5498,-1.5516,-1.5564,-1.559,-1.561,-1.5604,-1.5271,0,0,0,0,0,-1.5012,-1.5089,-1.5114,-1.5236,-1.5258,-1.5263,-1.5305,-1.5291,-1.5334,-1.5353,-1.5375,-1.542,-1.5493,-1.5542,-1.561,-1.5761,-1.5771,-1.5831,-1.5851,-1.5868,-1.5885,-1.5967,-1.5995,-1.5701,-1.57,-1.57,0,0,-1.509,-1.5118,-1.5168,-1.5256,-1.5287,-1.5368,-1.5278,-1.5367,-1.5428,-1.5366,-1.5483,-1.55,-1.5549,-1.5686,-1.5748,-1.5707,-1.5967,-1.5884,-1.5897,-1.5905,-1.5983,-1.6011,-1.6036,-1.5709,-1.5707,-1.5706,0,0,-1.5275,-1.5302,-1.5407,-1.544,-1.5489,-1.549,-1.5515,-1.5554,-1.5564,-1.5679,-1.5635,-1.5706,-1.5832,-1.5869,-1.5905,-1.6101,-1.6066,-1.6124,-1.6232,-1.6313,-1.6336,-1.6357,-1.6429,-1.6455,-1.614,-1.614,-1.614,0,-1.5366,-1.5486,-1.5466,-1.5559,-1.5599,-1.5545,-1.5652,-1.5685,-1.5754,-1.5784,-1.5736,-1.5893,-1.5922,-1.6068,-1.6116,-1.6145,-1.6174,-1.612,-1.6334,-1.6354,-1.6373,-1.6442,-1.647,-1.6147,-1.6146,-1.6145,-1.6145,0,-1.5597,-1.568,-1.5759,-1.5827,-1.5875,-1.5975,-1.5971,-1.6022,-1.6003,-1.601,-1.6129,-1.6161,-1.6236,-1.6268,-1.6251,-1.6412,-1.6385,-1.6336,-1.6253,-1.6409,-1.6474,-1.65,-1.6157,-1.6154,-1.6152,-1.6151,0,0,-1.5848,-1.5901,-1.5931,-1.5961,-1.6009,-1.6074,-1.617,-1.6242,-1.6288,-1.6336,-1.6418,-1.6525,-1.648,-1.652,-1.6506,-1.6576,-1.6733,-1.6519,-1.6519,-1.656,-1.6915,-1.6954,-1.6985,-1.6707,-1.6712,-1.6716,-1.6912,0,-1.6036,-1.6205,-1.6189,-1.635,-1.6427,-1.6376,-1.646,-1.65,-1.6508,-1.6576,-1.6584,-1.6662,-1.6595,-1.6619,-1.6686,-1.67,-1.6804,-1.6685,-1.6786,-1.679,-1.6779,-1.7018,-1.706,-1.7243,-1.6937,-1.6941,-1.6944,0,-1.628,-1.6337,-1.6505,-1.6542,-1.6574,-1.665,-1.6715,-1.6779,-1.6822,-1.6823,-1.6868,-1.6841,-1.6939,-1.6851,-1.6987,-1.6906,-1.6945,-1.6958,-1.6965,-1.6977,-1.6879,-1.704,-1.7301,-1.733,-1.6983,-1.698,-1.6977,0,-1.645,-1.6568,-1.6684,-1.671,-1.6756,-1.6811,-1.6832,-1.687,-1.6914,-1.6971,-1.7,-1.7066,-1.7104,-1.7157,-1.7149,-1.7085,-1.7289,-1.7199,-1.7294,-1.7295,-1.7343,-1.7341,-1.7617,-1.7363,-1.7362,-1.7362,-1.7361,0,-1.6665,-1.6771,-1.6761,-1.6833,-1.6949,-1.6929,-1.7046,-1.7061,-1.7095,-1.7169,-1.7128,-1.7199,-1.7182,-1.7253,-1.7247,-1.7362,-1.7378,-1.7383,-1.7381,-1.7389,-1.7389,-1.7418,-1.7406,-1.7369,-1.7367,-1.7366,-1.7365,0,-1.6876,-1.6873,-1.6997,-1.7029,-1.7039,-1.7124,-1.7152,-1.722,-1.7223,-1.7318,-1.7339,-1.7346,-1.7427,-1.7423,-1.7514,-1.751,-1.7652,-1.7634,-1.7638,-1.7636,-1.7732,-1.7724,-1.804,-1.8082,-1.7797,-1.7799,-1.7802,0,-1.7015,-1.7095,-1.7135,-1.7182,-1.7207,-1.7282,-1.7327,-1.731,-1.7358,-1.7413,-1.7475,-1.7551,-1.7612,-1.7744,-1.7757,-1.7827,-1.7812,-1.7917,-1.7822,-1.7828,-1.7817,-1.7814,-1.7823,-1.7938,-1.7941,-1.7943,-1.7945,0,-1.7264,-1.7258,-1.7324,-1.739,-1.7444,-1.7495,-1.7541,-1.7582,-1.7569,-1.7626,-1.7708,-1.7755,-1.7847,-1.7925,-1.7991,-1.8013,-1.7979,-1.7974,-1.8001,-1.8012,-1.8013,-1.8017,-1.7693,-1.7968,-1.7966,-1.7964,-1.7963,-1.7962,-1.7446,-1.7515,-1.7554,-1.7629,-1.7661,-1.7705,-1.7771,-1.7783,-1.785,-1.7925,-1.7909,-1.8002,-1.8042,-1.8128,-1.8156,-1.8229,-1.8191,-1.8229,-1.8239,-1.8249,-1.8262,-1.7998,-1.824,-1.824,-1.8239,-1.8238,-1.8238,0,-1.7695,-1.7717,-1.7785,-1.7851,-1.791,-1.7869,-1.7918,-1.7971,-1.8053,-1.8093,-1.8153,-1.8247,-1.8322,-1.834,-1.8411,-1.8466,-1.8452,-1.8486,-1.8484,-1.849,-1.829,-1.8261,-1.8496,-1.8496,-1.8496,-1.8496,-1.8496,-1.8496,-1.7832,-1.7947,-1.7946,-1.8077,-1.8098,-1.8188,-1.822,-1.8261,-1.8293,-1.84,-1.8461,-1.8472,-1.8504,-1.8577,-1.8644,-1.8647,-1.8677,-1.8718,-1.8716,-1.8529,-1.8504,-1.8479,-1.8452,-1.8724,-1.8724,-1.891,-1.8912,-1.8913]},{"header":{"parameterUnit":"m.s-1","parameterCategory":1,"la1":30.2991,"la2":30.254,"lo1":-89.0895,"lo2":-89.0444,"dy":0.0017,"dx":0.0017,"nx":28,"ny":28,"refTime":"2023-09-17T21:00:00:Z","depth":0,"parameterNumber":3,"parameterNumberName":"V-component_of_WINDS"},"data":[0,0,0,0,0,0,0,0,0,0,0,0,0,0,0,0,0,0,0,0,0,0,0,0,0,0,0,0,0,0,0,0,0,0,0,0,0,0,0,0,0,0,0,0,0,0,0,0,0,0,0,0,0,0,0,0,0,0,-3.404,-3.4041,0,-3.4128,-3.4129,-3.413,-3.4107,-3.4105,-3.4103,-3.4101,-3.4188,-3.4192,-3.4196,0,0,0,0,0,0,0,0,0,0,0,0,0,-3.3846,-3.3849,-3.404,-3.4041,-3.4042,-3.4128,-3.4129,-3.4131,-3.4107,-3.4105,-3.4103,-3.4101,-3.4187,-3.4191,-3.4196,0,0,0,0,0,0,0,0,0,0,0,0,0,-3.3932,-3.385,-3.404,-3.4041,-3.4042,-3.4128,-3.413,-3.4131,-3.4107,-3.4105,-3.4102,-3.41,-3.4185,-3.4191,-3.4197,-3.4286,0,0,-3.4215,-3.4217,0,0,0,0,0,0,0,0,-3.3927,-3.3939,-3.4039,-3.4041,-3.4042,-3.4104,-3.4093,-3.4183,-3.4108,-3.4082,-3.4101,-3.4098,-3.4162,-3.417,-3.4192,-3.429,-3.4294,-3.4215,-3.4219,-3.4222,-3.4223,0,0,0,0,0,0,0,-3.3921,-3.3935,-3.4075,-3.4041,-3.4042,-3.4035,-3.4045,-3.411,-3.4136,-3.4084,-3.4083,-3.4094,-3.4162,-3.4186,-3.4194,-3.4295,-3.4215,-3.4221,-3.4224,-3.4226,-3.447,-3.4473,0,0,0,0,0,0,-3.3914,-3.393,-3.4072,-3.4077,-3.3977,-3.4041,-3.4051,-3.4087,-3.4135,-3.414,-3.4096,-3.4092,-3.4177,-3.4187,-3.4197,-3.4304,-3.4221,-3.4227,-3.423,-3.4468,-3.4471,-3.4474,0,0,0,0,0,0,-3.391,-3.3927,-3.4068,-3.4003,-3.4021,-3.4047,-3.4087,-3.409,-3.4114,-3.4144,-3.4148,-3.4116,-3.4176,-3.4188,-3.4264,-3.4307,-3.423,-3.4235,-3.4464,-3.4469,-3.4473,-3.4519,0,0,0,0,0,0,-3.3905,-3.3926,-3.3961,-3.4004,-3.4024,-3.4136,-3.409,-3.4093,-3.4125,-3.4121,-3.4164,-3.4168,-3.4175,-3.4256,-3.427,-3.4313,-3.424,-3.446,-3.4466,-3.4471,-3.4514,-3.4525,-3.4534,0,0,0,0,0,-3.3898,-3.397,-3.3963,-3.3981,-3.4069,-3.4138,-3.415,-3.4156,-3.4128,-3.4163,-3.4182,-3.4167,-3.43,-3.4264,-3.428,-3.4325,-3.4458,-3.4464,-3.4471,-3.451,-3.4523,-3.4534,0,0,0,0,0,0,-3.393,-3.3976,-3.3969,-3.4057,-3.4094,-3.4134,-3.4179,-3.417,-3.4215,-3.4209,-3.4214,-3.4224,-3.4302,-3.4321,-3.428,-3.4414,-3.4374,-3.4385,-3.4398,-3.4411,-3.4421,-3.4414,-3.4245,0,0,0,0,0,-3.3948,-3.4002,-3.4038,-3.4113,-3.4132,-3.4152,-3.4183,-3.4185,-3.4223,-3.4238,-3.4262,-3.4299,-3.4348,-3.4381,-3.4428,-3.4517,-3.4525,-3.4556,-3.4566,-3.4574,-3.4583,-3.463,-3.4644,-3.4496,-3.4496,-3.4496,0,0,-3.3984,-3.4016,-3.4049,-3.412,-3.4149,-3.4203,-3.4165,-3.4224,-3.4264,-3.4246,-3.4319,-3.4339,-3.4379,-3.4462,-3.45,-3.4481,-3.4625,-3.4583,-3.4589,-3.4593,-3.4638,-3.4652,-3.4664,-3.45,-3.45,-3.4499,0,0,-3.4079,-3.4109,-3.4174,-3.4204,-3.4248,-3.4261,-3.4277,-3.4319,-3.4331,-3.4405,-3.4393,-3.4439,-3.4525,-3.4554,-3.458,-3.4685,-3.4672,-3.4701,-3.4752,-3.4798,-3.4809,-3.482,-3.4856,-3.4869,-3.4709,-3.4709,-3.4709,0,-3.4118,-3.42,-3.4208,-3.4268,-3.4299,-3.4287,-3.4352,-3.438,-3.4437,-3.4458,-3.4436,-3.4543,-3.457,-3.4659,-3.4684,-3.4706,-3.4723,-3.4695,-3.4808,-3.4818,-3.4828,-3.4862,-3.4876,-3.4712,-3.4712,-3.4711,-3.4711,0,-3.4246,-3.4303,-3.435,-3.4407,-3.4443,-3.4505,-3.4521,-3.4556,-3.4555,-3.457,-3.4645,-3.4676,-3.473,-3.4751,-3.475,-3.484,-3.4826,-3.4806,-3.4766,-3.4845,-3.4877,-3.4891,-3.4716,-3.4715,-3.4714,-3.4714,0,0,-3.4362,-3.4423,-3.444,-3.4465,-3.4514,-3.4557,-3.4618,-3.4672,-3.4701,-3.4741,-3.4792,-3.4865,-3.4846,-3.4876,-3.4878,-3.4919,-3.4999,-3.4893,-3.4894,-3.4911,-3.5098,-3.5112,-3.5127,-3.4991,-3.4993,-3.4995,-3.5094,0,-3.446,-3.4569,-3.4577,-3.4675,-3.4727,-3.4716,-3.4769,-3.4804,-3.4819,-3.4864,-3.4881,-3.4932,-3.4905,-3.4922,-3.4962,-3.498,-3.5036,-3.4974,-3.5036,-3.5038,-3.5025,-3.5144,-3.516,-3.5251,-3.5107,-3.5109,-3.511,0,-3.4588,-3.4633,-3.4736,-3.4777,-3.4799,-3.4847,-3.4896,-3.494,-3.4978,-3.4987,-3.502,-3.5017,-3.5078,-3.5036,-3.512,-3.5077,-3.5103,-3.5116,-3.512,-3.5125,-3.5078,-3.5152,-3.528,-3.5294,-3.5131,-3.5129,-3.5128,0,-3.4661,-3.4748,-3.482,-3.4843,-3.4892,-3.4926,-3.4947,-3.4983,-3.5015,-3.5057,-3.5077,-3.5126,-3.5153,-3.519,-3.5199,-3.5168,-3.5282,-3.5241,-3.5289,-3.5289,-3.5313,-3.5311,-3.5446,-3.5331,-3.5331,-3.5331,-3.533,0,-3.4769,-3.4832,-3.4854,-3.4899,-3.4969,-3.4977,-3.5046,-3.5065,-3.5097,-3.5144,-3.5138,-3.5182,-3.5192,-3.5237,-3.5245,-3.5312,-3.5324,-3.5331,-3.5332,-3.5332,-3.5331,-3.5348,-3.5341,-3.5334,-3.5333,-3.5333,-3.5332,0,-3.4862,-3.488,-3.4958,-3.4999,-3.501,-3.506,-3.5094,-3.5136,-3.5151,-3.521,-3.5225,-3.5247,-3.53,-3.5314,-3.5377,-3.5382,-3.5461,-3.5456,-3.5448,-3.5448,-3.5494,-3.5489,-3.5645,-3.5665,-3.5538,-3.5539,-3.554,0,-3.4929,-3.4978,-3.5024,-3.5056,-3.5079,-3.513,-3.5163,-3.5172,-3.5206,-3.5253,-3.5289,-3.5342,-3.5385,-3.547,-3.5491,-3.5539,-3.5535,-3.5586,-3.5542,-3.5539,-3.5534,-3.5531,-3.5535,-3.5594,-3.5595,-3.5597,-3.5597,0,-3.5046,-3.5052,-3.5099,-3.515,-3.5189,-3.5229,-3.5267,-3.5293,-3.5308,-3.5346,-3.5401,-3.5434,-3.5499,-3.5551,-3.5599,-3.562,-3.5611,-3.5611,-3.5625,-3.5624,-3.5617,-3.562,-3.547,-3.5607,-3.5606,-3.5606,-3.5605,-3.5605,-3.5127,-3.5169,-3.5209,-3.5261,-3.5291,-3.5327,-3.5369,-3.5389,-3.5435,-3.549,-3.5493,-3.5552,-3.5588,-3.5653,-3.5676,-3.5722,-3.5706,-3.5726,-3.573,-3.5735,-3.5738,-3.5611,-3.5731,-3.573,-3.573,-3.573,-3.573,0,-3.5242,-3.5267,-3.5316,-3.537,-3.5411,-3.5401,-3.5442,-3.5477,-3.553,-3.5565,-3.5607,-3.567,-3.572,-3.5746,-3.5795,-3.5827,-3.5824,-3.5839,-3.5836,-3.5841,-3.575,-3.5733,-3.5841,-3.5841,-3.5841,-3.5841,-3.5841,-3.5841,-3.5307,-3.5378,-3.5389,-3.5474,-3.5498,-3.5557,-3.5582,-3.5614,-3.5642,-3.5713,-3.5755,-3.5772,-3.5803,-3.5854,-3.59,-3.5905,-3.5923,-3.5941,-3.5945,-3.5859,-3.5848,-3.5837,-3.5821,-3.5945,-3.5945,-3.6032,-3.6032,-3.6033]}]]